Wind_Speed
22 21 21 23 24 25 24 25 25 22 23 25 25 24 24 24 24 23 22 21 19 18 18 18 18 18 18 18 19 19 19 19 18 19 19 19 19 20 20 21 20 20 19 19
23 22 22 23 24 26 24 24 24 24 24 24 25 26 25 25 25 24 22 22 21 20 20 20 19 19 20 20 20 20 20 20 19 19 19 19 19 20 21 20 20 19 19 18
24 23 23 25 24 24 24 25 26 26 25 24 25 25 25 25 25 25 23 22 22 22 22 21 21 20 21 20 20 20 20 20 19 20 19 19 19 20 20 20 19 19 19 18
25 23 24 24 25 24 25 25 25 25 26 25 26 26 26 26 25 25 25 24 23 23 23 23 23 22 21 21 20 20 21 20 20 20 20 19 19 20 20 20 20 20 19 18
24 23 25 25 26 26 26 27 27 27 27 27 26 26 25 25 26 25 25 24 24 24 24 23 23 22 22 21 21 21 22 21 21 21 20 20 20 20 20 20 20 19 19 18
25 25 25 26 26 25 25 28 28 27 27 27 27 27 25 26 26 25 25 24 24 24 23 23 22 22 22 22 22 22 22 21 21 21 22 21 21 21 20 20 19 19 19 18
26 27 26 27 27 26 27 28 29 28 27 27 27 27 26 26 26 26 25 25 25 25 24 24 23 23 23 22 22 22 22 22 21 21 21 21 21 21 21 20 20 19 19 18
26 26 26 26 27 27 28 28 27 27 27 27 27 27 27 26 27 27 26 26 25 25 25 24 23 23 23 23 23 23 22 21 21 21 21 21 21 21 22 21 21 21 20 19
25 26 26 26 27 27 26 27 27 26 26 26 27 27 27 27 27 27 27 26 25 25 25 24 23 23 24 24 24 23 23 22 22 21 22 22 22 22 22 21 21 22 21 20
26 26 25 25 26 26 25 26 26 27 26 27 28 28 27 27 27 27 27 26 25 25 24 24 23 24 24 25 25 25 24 23 23 23 22 23 23 23 22 23 22 21 19 19
26 26 26 25 25 25 25 25 25 25 26 27 27 27 27 26 26 25 25 25 25 25 25 25 25 25 25 25 26 26 25 24 24 23 23 23 23 23 23 22 21 21 19 19
26 26 26 25 25 25 26 26 26 27 27 26 26 25 26 25 24 24 25 25 25 25 25 25 24 24 25 25 25 25 25 25 24 23 23 23 22 22 22 22 21 20 20 19
26 26 25 25 26 26 26 26 27 28 27 26 26 25 24 23 24 25 25 25 25 25 25 25 24 25 25 25 24 24 24 24 23 23 23 23 22 21 20 21 21 20 20 20
26 26 26 25 25 25 25 26 26 27 28 28 26 26 24 24 24 25 25 25 25 25 25 25 24 24 24 24 24 24 24 24 24 24 23 22 22 21 20 20 20 19 19 19
26 26 27 26 26 26 27 27 27 28 27 27 26 26 26 25 25 24 24 24 25 25 25 25 24 24 24 25 25 25 24 24 24 24 23 23 22 21 21 21 21 20 20 19
25 26 27 27 28 28 28 28 28 28 28 27 27 26 26 26 25 25 25 25 25 26 25 25 25 25 24 25 25 24 24 24 24 23 23 23 22 22 21 21 21 21 20 20
24 24 25 27 27 28 27 27 27 28 28 27 26 26 26 26 27 27 27 26 27 27 26 25 25 25 25 24 24 24 23 23 23 23 22 22 23 22 22 22 22 21 21 21
22 23 24 25 26 27 27 27 27 27 27 27 27 27 27 26 26 27 27 27 27 26 26 26 25 25 25 25 24 24 23 22 22 22 22 22 22 22 22 22 23 22 22 21
21 22 23 24 25 26 26 26 26 26 27 26 26 26 27 27 27 27 26 27 27 27 26 26 26 25 25 25 25 24 24 23 22 22 21 21 22 22 22 21 21 22 21 21
21 21 22 22 22 23 24 24 24 24 24 25 25 25 26 26 26 26 26 26 26 25 26 26 26 25 25 25 25 25 24 24 22 21 21 22 22 22 23 22 21 21 21 20
22 21 21 21 21 21 22 22 23 23 23 24 24 24 24 25 25 25 25 26 26 25 25 26 26 25 24 24 25 25 24 24 22 21 21 22 22 23 23 22 23 22 22 21
21 21 21 21 21 22 22 22 23 23 23 23 23 23 23 23 23 23 24 25 25 25 25 25 25 25 24 24 24 23 23 23 23 22 22 22 22 21 22 22 21 21 21 21
21 21 21 21 21 22 22 23 23 23 23 22 22 22 22 22 22 22 22 23 23 23 24 24 24 23 23 24 24 23 23 22 22 21 22 22 22 22 21 21 21 20 20 20
20 20 20 20 21 21 21 21 22 22 22 22 22 22 22 22 22 22 22 22 22 22 23 23 23 23 23 23 23 23 22 22 22 22 22 21 21 21 21 21 20 20 20 20
19 19 19 19 19 20 20 20 21 22 22 22 23 23 22 22 21 20 20 20 20 21 21 22 22 23 23 23 23 23 22 22 22 22 22 21 20 20 20 20 20 20 20 20
17 17 18 18 18 18 18 18 18 19 20 20 20 20 20 19 19 19 18 19 19 20 21 21 22 23 23 23 23 24 23 22 22 21 21 20 20 20 20 20 21 21 21 20
15 15 16 16 17 16 16 16 17 18 18 18 18 18 18 18 18 18 18 19 19 20 20 21 21 22 22 22 23 23 23 23 22 22 21 21 20 21 21 21 21 21 21 21
Wind_Direction
243 242 240 242 241 240 245 250 254 258 260 260 262 262 261 263 268 272 270 270 273 277 279 279 280 284 288 290 292 294 297 299 299 299 299 302 304 308 311 315 317 318 314 312
248 246 241 246 246 245 249 252 252 254 257 261 262 263 265 264 267 270 269 268 273 276 277 281 282 283 286 288 291 294 297 296 295 296 298 301 304 306 309 312 315 318 317 314
246 243 244 243 244 245 247 252 255 258 261 260 264 266 264 265 266 267 268 270 272 273 275 278 282 283 284 285 288 291 295 295 293 293 294 298 302 305 307 310 312 313 314 315
250 246 247 248 248 247 247 249 252 256 261 263 263 265 265 266 265 266 266 269 271 272 273 274 278 280 281 283 286 289 293 293 292 289 291 294 299 302 303 306 310 311 310 310
252 251 252 253 252 249 251 254 255 256 257 261 263 267 266 265 266 264 266 269 270 271 271 272 275 278 280 281 284 287 290 290 290 291 292 294 297 299 300 302 306 309 308 307
251 253 254 252 251 252 253 255 256 258 259 261 261 263 264 264 265 265 267 269 269 270 271 272 275 277 278 279 281 284 287 289 291 291 291 294 296 295 297 300 302 305 307 306
250 251 251 254 254 255 253 255 257 257 259 261 262 261 262 263 265 267 267 268 269 269 269 271 272 274 276 277 278 281 284 286 288 290 291 291 293 293 298 301 302 302 304 304
248 247 247 252 255 255 256 257 257 257 259 260 262 262 264 264 264 266 268 268 268 268 269 268 270 271 273 275 277 279 282 284 285 286 287 289 290 292 296 298 300 300 300 301
247 248 249 252 255 258 259 259 259 259 257 258 260 262 265 264 263 264 266 267 267 267 268 268 269 271 273 273 275 279 281 282 283 284 286 287 289 291 293 294 296 298 296 296
247 248 249 251 252 255 258 259 259 260 259 260 262 262 264 265 263 263 263 264 264 264 265 266 270 273 275 274 275 277 279 280 281 282 283 285 287 289 291 294 295 295 293 293
249 247 249 252 254 255 255 256 258 258 259 259 260 261 262 261 263 263 263 264 265 265 266 268 271 273 276 277 278 279 279 279 280 281 282 284 286 287 289 291 294 295 294 292
250 249 249 255 256 256 257 257 258 258 260 260 260 259 260 263 264 264 262 263 264 264 266 268 270 273 276 279 280 281 281 280 280 281 283 285 286 287 287 287 289 292 291 289
256 256 255 255 256 257 258 257 258 259 259 260 260 263 265 264 265 265 265 266 264 264 265 266 269 271 274 278 280 281 281 282 282 282 282 283 283 284 285 287 288 287 287 285
257 258 258 258 258 258 258 258 259 259 259 260 262 264 266 266 266 266 265 264 263 262 265 267 268 271 274 276 278 280 281 280 280 280 279 279 280 282 284 285 285 285 284 284
256 257 258 258 258 259 259 259 260 261 260 260 261 262 262 263 263 265 264 263 263 264 266 266 268 270 274 275 277 279 280 278 278 278 278 277 278 280 281 283 283 284 283 283
258 258 258 257 257 259 261 260 261 261 262 262 262 262 263 263 265 266 264 265 265 264 266 266 269 270 274 275 276 277 278 277 277 277 278 278 278 279 280 281 281 281 282 282
257 258 258 258 258 259 260 260 260 260 262 263 264 263 264 264 265 266 265 265 265 265 268 269 270 271 273 274 275 276 276 276 276 277 278 279 279 279 279 279 279 279 280 281
258 257 258 259 259 261 262 261 260 260 261 263 265 265 265 265 266 267 266 266 266 267 268 268 268 269 271 272 273 274 274 275 277 274 276 279 279 281 282 281 278 278 279 279
264 264 262 262 262 260 260 262 265 263 263 265 265 265 266 268 267 266 266 266 266 266 265 265 267 270 272 272 272 272 272 273 275 273 274 278 282 282 282 282 281 279 279 279
264 265 264 264 263 261 262 265 267 267 265 267 267 266 266 268 268 267 265 265 266 265 266 267 269 270 271 272 271 271 271 272 272 273 275 276 278 280 280 280 280 278 277 278
266 266 266 267 267 265 265 267 270 270 268 269 270 269 268 268 268 267 266 265 265 266 266 266 267 268 269 270 271 270 270 270 270 274 275 278 279 278 277 277 276 274 273 275
268 267 266 266 266 265 265 266 268 269 269 269 269 269 270 270 269 269 267 266 266 265 265 265 266 265 266 269 270 270 270 270 270 272 274 276 277 279 279 277 276 274 272 272
269 266 265 266 265 265 266 265 265 267 267 266 266 268 269 270 271 271 269 267 265 264 264 264 264 265 265 267 269 270 272 270 270 271 272 273 275 278 279 277 275 273 272 271
269 267 265 265 266 266 266 265 264 265 266 266 266 267 268 269 270 270 269 267 266 265 263 261 261 263 264 267 268 269 272 271 270 269 269 271 274 276 277 274 272 271 270 269
275 268 265 267 268 267 266 266 265 265 267 266 266 268 268 268 269 268 265 265 266 266 264 261 260 261 262 265 266 265 267 268 268 269 267 266 269 272 273 272 271 271 269 268
280 272 268 267 267 267 268 268 267 268 270 268 268 266 265 264 264 265 264 265 266 266 265 263 263 264 265 263 265 266 266 269 271 270 268 265 266 269 271 272 273 272 271 271
281 278 272 269 266 263 266 267 267 270 270 270 270 268 263 261 261 264 266 267 268 268 267 266 267 267 267 267 266 265 266 268 268 268 268 268 267 268 270 271 272 270 270 269
Height
5785 5787 5788 5789 5791 5792 5793 5795 5796 5796 5796 5796 5797 5797 5797 5799 5799 5800 5800 5800 5800 5799 5800 5800 5799 5799 5798 5796 5795 5793 5791 5790 5788 5786 5785 5783 5780 5778 5776 5773 5770 5766 5763 5761
5779 5781 5782 5784 5785 5786 5788 5789 5790 5790 5790 5790 5791 5791 5791 5793 5794 5794 5794 5794 5795 5795 5795 5795 5795 5794 5793 5792 5790 5789 5787 5785 5784 5782 5781 5778 5776 5774 5772 5769 5766 5763 5760 5756
5773 5775 5775 5777 5779 5781 5782 5783 5784 5784 5786 5784 5785 5786 5787 5787 5788 5788 5789 5789 5790 5790 5790 5790 5790 5789 5788 5787 5786 5784 5782 5781 5779 5778 5776 5774 5772 5770 5768 5766 5763 5759 5756 5753
5766 5768 5769 5774 5774 5774 5775 5776 5777 5778 5778 5778 5779 5780 5781 5781 5781 5781 5783 5784 5784 5784 5784 5784 5784 5783 5783 5781 5780 5779 5778 5776 5774 5773 5772 5770 5768 5766 5764 5761 5758 5755 5752 5749
5760 5761 5763 5766 5767 5769 5770 5770 5770 5771 5772 5772 5773 5773 5773 5774 5774 5775 5776 5777 5778 5778 5778 5778 5778 5777 5777 5776 5775 5774 5773 5771 5769 5768 5766 5765 5763 5761 5759 5757 5754 5751 5748 5746
5754 5755 5756 5759 5760 5761 5764 5763 5764 5764 5765 5766 5766 5767 5768 5768 5768 5768 5770 5770 5771 5772 5771 5771 5771 5771 5771 5770 5769 5768 5767 5765 5764 5763 5761 5759 5758 5756 5754 5752 5749 5747 5744 5742
5747 5748 5749 5751 5753 5755 5757 5756 5757 5758 5758 5759 5759 5760 5761 5761 5761 5762 5763 5764 5764 5765 5765 5765 5765 5765 5764 5764 5763 5762 5761 5760 5759 5757 5756 5754 5753 5751 5749 5747 5745 5742 5740 5738
5739 5740 5743 5744 5746 5747 5748 5748 5748 5750 5751 5752 5752 5753 5754 5754 5755 5756 5756 5757 5757 5758 5758 5758 5758 5758 5758 5757 5757 5756 5755 5754 5753 5751 5750 5749 5747 5746 5744 5742 5740 5738 5735 5734
5733 5735 5735 5736 5738 5739 5740 5741 5742 5743 5744 5745 5745 5746 5747 5747 5748 5749 5749 5750 5750 5751 5751 5751 5751 5751 5751 5751 5750 5750 5749 5748 5747 5745 5744 5743 5742 5740 5739 5737 5735 5732 5731 5729
5725 5726 5728 5729 5730 5732 5734 5735 5736 5736 5736 5738 5738 5739 5739 5740 5740 5741 5742 5743 5743 5743 5744 5744 5744 5744 5744 5744 5744 5743 5742 5741 5740 5739 5738 5737 5736 5734 5733 5731 5729 5727 5725 5724
5719 5720 5722 5723 5724 5726 5727 5728 5729 5729 5730 5730 5731 5731 5732 5733 5733 5734 5735 5735 5736 5736 5736 5737 5737 5736 5736 5736 5736 5735 5734 5734 5733 5732 5731 5730 5729 5728 5726 5725 5723 5721 5720 5718
5711 5713 5715 5716 5717 5719 5720 5721 5722 5722 5723 5723 5723 5724 5724 5725 5726 5726 5727 5728 5728 5729 5729 5729 5730 5730 5729 5729 5728 5728 5727 5727 5726 5725 5724 5723 5723 5722 5720 5719 5717 5716 5714 5713
5704 5706 5707 5709 5711 5712 5712 5713 5714 5714 5715 5715 5716 5715 5715 5717 5718 5719 5720 5720 5721 5721 5722 5722 5723 5722 5722 5722 5721 5721 5720 5719 5718 5718 5717 5716 5716 5715 5714 5713 5711 5710 5709 5708
5698 5699 5700 5702 5703 5704 5705 5705 5706 5706 5707 5707 5708 5709 5709 5710 5711 5712 5712 5712 5713 5714 5714 5715 5715 5715 5715 5715 5714 5714 5713 5712 5711 5711 5710 5709 5709 5708 5707 5706 5706 5705 5703 5702
5690 5691 5693 5694 5695 5696 5697 5698 5699 5699 5699 5699 5700 5701 5702 5702 5703 5704 5704 5705 5706 5706 5707 5707 5707 5707 5707 5707 5707 5706 5705 5705 5704 5704 5703 5702 5702 5701 5700 5700 5699 5698 5697 5696
5682 5684 5685 5686 5687 5688 5689 5690 5691 5691 5691 5692 5692 5693 5694 5695 5696 5696 5697 5697 5698 5699 5699 5699 5699 5699 5699 5699 5699 5698 5698 5697 5696 5696 5696 5695 5694 5694 5693 5692 5692 5691 5691 5690
5675 5676 5677 5679 5680 5681 5681 5682 5682 5683 5683 5684 5685 5686 5686 5687 5688 5688 5689 5689 5690 5690 5690 5690 5691 5691 5691 5691 5691 5690 5690 5689 5689 5688 5688 5687 5687 5686 5686 5685 5684 5684 5683 5683
5669 5669 5670 5671 5672 5673 5674 5675 5675 5675 5676 5677 5677 5678 5679 5679 5680 5680 5680 5681 5681 5682 5682 5682 5683 5683 5683 5683 5683 5683 5682 5682 5682 5681 5681 5680 5679 5679 5678 5677 5677 5677 5676 5676
5662 5663 5663 5664 5665 5665 5666 5667 5667 5668 5668 5669 5669 5670 5670 5671 5671 5672 5672 5673 5673 5673 5674 5674 5675 5675 5675 5675 5675 5674 5675 5674 5674 5674 5673 5673 5672 5671 5671 5670 5670 5669 5669 5669
5656 5656 5657 5657 5657 5658 5659 5659 5660 5660 5661 5661 5661 5662 5662 5663 5663 5663 5664 5664 5664 5665 5665 5666 5666 5667 5667 5667 5666 5666 5666 5667 5667 5666 5666 5666 5665 5664 5664 5663 5663 5662 5662 5662
5649 5650 5650 5651 5651 5651 5652 5652 5652 5653 5653 5653 5654 5654 5654 5655 5655 5655 5656 5656 5657 5657 5657 5658 5658 5659 5659 5659 5659 5658 5658 5658 5659 5659 5658 5658 5657 5657 5656 5656 5655 5655 5655 5655
5643 5643 5644 5644 5645 5645 5645 5645 5645 5645 5646 5646 5646 5646 5647 5647 5647 5647 5648 5648 5648 5649 5649 5650 5650 5650 5651 5651 5650 5650 5650 5650 5651 5651 5651 5650 5650 5649 5648 5648 5648 5648 5648 5648
5636 5637 5637 5637 5637 5638 5638 5638 5638 5638 5639 5639 5639 5639 5639 5639 5639 5640 5640 5640 5640 5641 5641 5642 5642 5642 5643 5643 5643 5643 5643 5643 5643 5643 5643 5643 5642 5642 5641 5641 5641 5641 5641 5641
5630 5630 5630 5630 5630 5630 5631 5631 5631 5632 5632 5632 5632 5632 5632 5632 5632 5632 5632 5632 5633 5633 5633 5634 5635 5635 5635 5635 5636 5636 5636 5635 5635 5635 5635 5635 5635 5635 5635 5634 5634 5634 5634 5634
5623 5623 5623 5623 5623 5624 5624 5624 5624 5624 5625 5625 5625 5625 5625 5625 5625 5624 5624 5625 5625 5626 5626 5627 5627 5627 5628 5628 5628 5628 5628 5628 5628 5628 5628 5628 5628 5628 5628 5628 5628 5628 5628 5628
5617 5617 5617 5617 5617 5617 5617 5618 5618 5618 5618 5618 5618 5617 5617 5618 5618 5618 5618 5618 5618 5618 5619 5619 5620 5620 5620 5621 5621 5621 5621 5621 5621 5621 5621 5621 5622 5622 5621 5621 5621 5621 5621 5621
5612 5612 5612 5612 5611 5611 5612 5612 5611 5611 5611 5611 5611 5610 5611 5611 5611 5612 5612 5612 5612 5612 5612 5612 5612 5613 5613 5613 5613 5613 5613 5614 5614 5614 5614 5615 5615 5615 5615 5615 5614 5615 5615 5615